Location: Kapuskasing
(49.3803°N, 82.4001°W)
Time: 11:09:55
(UTC-04:00)

Envisat - Pass Details

Date: 22 March 2026
Orbit: 761 x 762 km, 98.4° (Epoch: 19 April)

Event Time Altitude Azimuth Distance (km) Brightness Sun altitude
Rises 04:15:57 0° 14° (NNE) 3,237 7.1 -29.4°
Reaches altitude 10° 04:18:16 10° 16° (NNE) 2,306 6.2 -29.1°
Enters shadow 04:22:50 71° 35° (NE) 807 3.1 -28.5°
